#timestamp,LO_Frequency,Hit,StdDev 
1581577215.1,286047001.7,N
1581577235.9,286047006.0,Y
1581577255.7,286047002.1,P
1581577275.6,286047002.8,P
1581577295.4,286047001.8,N
1581577315.2,286047002.1,N
1581577335.1,286047004.0,Y
1581577336.0,286047004.0,P
1581577355.8,286047002.7,N
1581577375.7,286047000.9,N
1581577395.5,286047000.1,N
1581577415.3,286047002.7,N
1581577435.2,286047000.2,N
1581577455.0,286046999.8,N
1581577455.9,286046999.8,N
1581577475.8,286047001.0,N
1581577495.6,286046998.7,N
1581577515.4,286047001.2,N
1581577535.3,286047002.7,N
1581577555.1,286047000.0,N
1581577575.8,286047000.0,N
1581577595.7,286047001.7,N
1581577615.5,286046998.4,N
1581577635.4,286046996.7,N
1581577655.2,286046999.6,N
1581577675.0,286046999.2,N
1581577675.9,286046999.2,N
1581577695.8,286046996.9,N
1581577715.6,286046995.2,N
1581577735.4,286046999.6,N
1581577755.3,286046998.1,N
1581577775.1,286047000.4,N
1581577795.9,286047000.8,N
1581577815.7,286046998.8,N
1581577835.5,286046996.6,N
1581577855.4,286046995.7,N
1581577875.2,286046995.3,N
1581577895.0,286046995.6,N
1581577896.0,286046995.6,N
1581577915.8,286046999.5,N
1581577935.6,286046998.4,N
1581577955.5,286047000.7,N
1581577975.3,286047002.4,N
1581577995.1,286047001.2,N
1581578015.9,286046999.9,N
1581578035.7,286047002.7,N
1581578055.6,286047001.1,N
1581578075.4,286046998.9,N
1581578095.2,286046998.2,N
1581578115.1,286046998.9,N
1581578116.0,286046998.9,N
1581578135.8,286047000.7,N
1581578155.7,286047001.0,N
1581578175.5,286046998.2,N
1581578195.3,286047002.1,N
1581578215.2,286047000.9,N
1581578235.0,286047002.6,N
1581578235.9,286047002.6,N
1581578255.7,286047002.4,N
1581578275.6,286047001.1,N
1581578295.4,286047011.9,Y
1581578315.3,286046998.2,P
1581578335.1,286046998.4,N
1581578355.8,286046998.8,N
1581578375.7,286046999.1,N
1581578395.5,286046998.6,N
1581578415.4,286047002.8,Y
1581578435.2,286047003.5,P
1581578455.0,286047001.6,N
1581578455.9,286047001.6,N
1581578475.8,286047001.6,N
1581578495.6,286047002.0,N
1581578515.4,286047001.6,N
1581578535.3,286047001.4,N
1581578555.1,286047004.4,Y
1581578575.9,286047001.0,P
1581578595.7,286047002.5,P
1581578615.5,286047002.2,P
1581578635.4,286047001.6,N
1581578655.2,286046999.7,N
1581578675.1,286047000.9,N
1581578676.0,286047000.9,N
1581578695.8,286047002.4,N
1581578715.6,286046998.3,N
1581578735.5,286046998.8,N
1581578755.3,286046999.1,N
1581578775.1,286046999.5,N
1581578795.9,286046997.3,N
1581578815.7,286046999.2,N
1581578835.6,286046999.2,N
1581578855.4,286046998.8,N
1581578875.2,286046996.5,N
1581578895.1,286046997.4,N
1581578896.0,286046997.4,N
1581578915.8,286046998.2,N
1581578935.6,286046998.5,N
1581578955.5,286047000.7,N
1581578975.3,286046998.4,N
1581578995.2,286047000.3,N
1581579015.9,286046999.8,N
1581579035.7,286047000.3,N
1581579055.6,286047001.2,N
1581579075.4,286046998.3,N
1581579095.3,286046998.3,N
1581579115.1,286046999.2,N
1581579116.0,286046999.2,N
1581579135.8,286047000.7,N
1581579155.7,286047001.2,N
1581579175.5,286046996.9,N
1581579195.3,286046998.9,N
1581579215.2,286046998.8,N
1581579235.0,286046997.7,N
1581579235.9,286046997.7,N
1581579255.8,286046997.1,N
1581579275.6,286046996.5,N
1581579295.5,286046999.4,N
1581579315.3,286046999.6,N
1581579335.1,286046998.6,N
1581579355.9,286046998.7,N
1581579375.7,286046996.7,N
1581579395.5,286046997.2,N
1581579415.4,286046995.2,Y
1581579435.2,286046998.0,P
1581579455.1,286046995.6,P
1581579456.0,286046995.6,P
1581579475.8,286046996.2,N
1581579495.6,286046995.5,Y
1581579515.5,286046997.0,P
1581579535.3,286046996.9,P
1581579555.2,286046997.0,P
1581579575.9,286046995.4,Y
1581579595.7,286047001.1,P
1581579615.6,286047000.8,N
1581579635.4,286046999.7,N
1581579655.2,286047002.0,N
1581579675.1,286047002.6,N
1581579676.0,286047002.6,N
1581579695.8,286047002.1,N
1581579715.7,286047000.2,N
1581579735.5,286047000.9,N
1581579755.3,286047000.6,N
1581579775.2,286047001.1,N
1581579795.0,286047001.1,N
1581579795.9,286047001.1,N
1581579815.7,286047000.9,N
1581579835.6,286046996.5,N
1581579855.4,286046999.1,N
1581579875.3,286046999.4,N
1581579895.1,286046998.6,N
1581579896.0,286046998.6,N
1581579915.8,286047000.5,N
1581579935.7,286047000.9,N
1581579955.5,286047001.1,N
1581579975.4,286047001.0,N
1581579995.2,286046998.6,N
1581580015.0,286046998.4,N
1581580015.9,286046998.4,N
1581580035.8,286046998.5,N
1581580055.6,286046998.4,N
1581580075.5,286046998.3,N
1581580095.3,286047001.2,N
1581580115.1,286046998.9,N
1581580135.9,286046999.6,N
1581580155.7,286046995.0,Y
1581580175.5,286046995.2,P
1581580195.4,286046994.8,N
1581580215.2,286046992.7,P
1581580235.1,286046992.8,N
1581580236.0,286046992.8,N
1581580255.8,286046993.0,N
1581580275.6,286046992.1,Y
1581580295.5,286046996.6,P
1581580315.3,286046996.7,P
1581580335.1,286046996.9,P
1581580355.9,286046996.6,Y
1581580375.7,286047000.0,P
1581580395.6,286046998.2,N
1581580415.4,286047002.8,N
1581580435.2,286047002.1,N
1581580455.1,286047001.8,N
1581580456.0,286047001.8,N
1581580475.8,286047000.9,N
1581580495.7,286046999.7,N
1581580515.5,286047001.0,N
1581580535.3,286047000.0,N
1581580555.2,286046998.9,N
1581580575.0,286046998.8,N
1581580575.9,286046998.8,N
1581580595.7,286046999.2,N
1581580615.6,286046997.2,N
1581580635.4,286046997.6,N
1581580655.3,286046995.8,N
1581580675.1,286046995.2,N
1581580695.8,286046995.4,N
1581580715.7,286046997.9,N
1581580735.5,286046997.3,N
1581580755.4,286046998.0,N
1581580775.2,286046995.6,N
1581580795.0,286046994.1,N
1581580795.9,286046994.1,N
